Location: Bright Sky Observatory
(40.7821°N, 74.2425°W)
Time: 04:12:27
(UTC-04:00)

Amateur Radio Satellites - All Passes

Search period start: 01 October 2014 03:42
Search period end: 02 October 2014 03:42
Location: Bright Sky Observatory, 40.7821°N, 74.2425°W

Satellite Date Start Highest point End Downlink Frequencies (MHz)
Time Altitude Azimuth
OPAL 01 Oct 03:45:12 03:49:02 21° 61° (ENE) 03:52:52 ?
Oscar 19 01 Oct 03:58:13 04:01:46 19° 297° (WNW) 04:05:18 437.125 CW, 437.150 USB
ISS 01 Oct 03:59:08 04:02:09 31° 26° (NNE) 04:05:09 145.800 FM
TMSAT-1 01 Oct 03:59:49 04:05:09 75° 103° (ESE) 04:10:27 436.925 FM
ITAMSAT 1 01 Oct 04:08:45 04:13:27 35° 292° (WNW) 04:18:08 435.822 SSB
Uribyol 2 01 Oct 04:09:45 04:14:21 32° 293° (WNW) 04:18:56 436.500 FM
Uosat F 01 Oct 04:31:45 04:35:47 24° 95° (E) 04:39:47 435.120 FM
SO-50 01 Oct 04:45:08 04:49:56 67° 240° (WSW) 04:54:46 436.795 FM
AO-27 01 Oct 04:48:23 04:51:32 16° 299° (WNW) 04:54:40 436.795 MHz FM
AO-7 01 Oct 04:48:41 04:56:35 46° 100° (E) 05:04:26 29.400 - 29.500 MHz
AO-Echo 01 Oct 04:50:58 04:52:48 12° 300° (WNW) 04:54:40 ?
Gurwin Techsat 1B 01 Oct 05:12:07 05:15:52 20° 297° (WNW) 05:19:36 435.225 FM
UOSAT-12 01 Oct 05:13:50 05:17:52 27° 46° (NE) 05:21:50 437.025 FM, 437.400 FM
OPAL 01 Oct 05:22:27 05:27:31 52° 258° (WSW) 05:32:37 ?
RS-15 01 Oct 05:29:14 05:38:21 29° 330° (NNW) 05:47:33 29.354 - 29.394 USB, Beacon 29.352 USB
ISS 01 Oct 05:35:48 05:38:52 35° 224° (SW) 05:41:55 145.800 FM
MaSat-1 01 Oct 05:39:34 05:44:23 62° 112° (ESE) 05:49:00 437.345 MHz
TMSAT-1 01 Oct 05:41:31 05:44:25 15° 300° (WNW) 05:47:18 436.925 FM
JAS-2 01 Oct 06:08:34 06:14:59 44° 98° (E) 06:22:01 435.800 - 435.900 CW/SSB, 435.910 FM
Uosat F 01 Oct 06:10:00 06:14:40 39° 291° (WNW) 06:19:20 435.120 FM
STRAND 1 01 Oct 06:24:13 06:29:00 43° 70° (ENE) 06:33:50 ?
AO-7 01 Oct 06:41:40 06:49:14 42° 299° (WNW) 06:56:49 29.400 - 29.500 MHz
UOSAT-12 01 Oct 06:53:44 06:58:08 40° 244° (WSW) 07:02:27 437.025 FM, 437.400 FM
Hamsat 01 Oct 07:00:24 07:04:36 79° 284° (WNW) 07:08:46 145.90 MHz
MaSat-1 01 Oct 07:17:58 07:21:12 18° 308° (NW) 07:24:19 437.345 MHz
SO-67 01 Oct 07:37:36 07:40:45 32° 97° (E) 07:43:53 435.3500 MHz FM
RS-15 01 Oct 07:48:25 07:55:52 20° 6° (N) 08:03:26 29.354 - 29.394 USB, Beacon 29.352 USB
JAS-2 01 Oct 07:53:55 07:59:52 36° 293° (WNW) 08:06:24 435.800 - 435.900 CW/SSB, 435.910 FM
STRAND 1 01 Oct 08:04:30 08:08:22 22° 266° (W) 08:12:16 ?
Sapphire 01 Oct 09:00:51 09:05:29 30° 109° (ESE) 09:10:09 437.095 MHz 1200 baud AX-25 AFSK
HO-68 01 Oct 09:04:06 09:10:08 28° 95° (E) 09:16:08 435.675 MHz FM
SO-67 01 Oct 09:11:40 09:13:28 14° 293° (WNW) 09:15:16 435.3500 MHz FM
PCSat 01 Oct 09:25:40 09:30:55 54° 114° (ESE) 09:36:12 145.825 MHz
UKube-1 01 Oct 09:48:10 09:51:39 23° 95° (E) 09:55:07 145.840 MHz, 145.915 MHz
RS-15 01 Oct 10:02:30 10:12:39 39° 39° (NE) 10:23:05 29.354 - 29.394 USB, Beacon 29.352 USB
ZACube-1 01 Oct 10:28:21 10:31:54 22° 93° (E) 10:35:23 437.345 MHz
Sapphire 01 Oct 10:43:43 10:48:45 39° 307° (NW) 10:53:50 437.095 MHz 1200 baud AX-25 AFSK
HO-68 01 Oct 10:51:10 10:58:08 55° 292° (WNW) 11:05:04 435.675 MHz FM
Oscar 11 01 Oct 10:53:58 10:58:19 80° 284° (WNW) 11:02:37 145.825 FM, Beacon 2401.500 USB
PCSat 01 Oct 11:10:17 11:14:39 24° 312° (NW) 11:19:02 145.825 MHz
FUNcube-1 01 Oct 11:18:38 11:23:12 78° 102° (ESE) 11:27:39 145.950 - 145.970 MHz USB
UKube-1 01 Oct 11:24:00 11:27:52 31° 291° (WNW) 11:31:42 145.840 MHz, 145.915 MHz
ZACube-1 01 Oct 12:04:15 12:08:22 34° 290° (WNW) 12:12:24 437.345 MHz
RS-15 01 Oct 12:14:50 12:25:53 72° 244° (WSW) 12:37:26 29.354 - 29.394 USB, Beacon 29.352 USB
JAS-1B 01 Oct 12:27:10 12:31:35 18° 61° (ENE) 12:35:37 435.800 - 435.900 CW/SSB
Oscar 16 01 Oct 12:37:35 12:41:40 24° 65° (ENE) 12:45:45 437.025 USB, Beacon 2401.1428
HO-68 01 Oct 12:42:56 12:44:16 11° 312° (NW) 12:45:36 435.675 MHz FM
AO-Echo 01 Oct 12:47:29 12:49:18 12° 60° (ENE) 12:51:09 ?
AO-27 01 Oct 12:49:24 12:51:43 13° 59° (ENE) 12:54:02 436.795 MHz FM
FUNcube-1 01 Oct 12:57:35 12:58:53 11° 299° (WNW) 13:00:11 145.950 - 145.970 MHz USB
Gurwin Techsat 1B 01 Oct 13:16:32 13:18:08 11° 58° (ENE) 13:19:44 435.225 FM
Oscar 19 01 Oct 13:34:18 13:39:29 76° 75° (ENE) 13:44:41 437.125 CW, 437.150 USB
TMSAT-1 01 Oct 13:43:29 13:46:24 15° 60° (ENE) 13:49:20 436.925 FM
ITAMSAT 1 01 Oct 13:47:09 13:52:00 43° 70° (ENE) 13:56:53 435.822 SSB
Uribyol 2 01 Oct 13:47:51 13:52:47 46° 70° (ENE) 13:57:45 436.500 FM
Saudisat 1A 01 Oct 13:57:33 14:01:47 50° 118° (ESE) 14:06:03 436.775 MHz
AO-7 01 Oct 14:00:27 14:04:09 14° 45° (NE) 14:07:51 29.400 - 29.500 MHz
JAS-1B 01 Oct 14:13:57 14:21:42 83° 256° (WSW) 14:28:11 435.800 - 435.900 CW/SSB
Oscar 16 01 Oct 14:15:49 14:20:44 43° 261° (W) 14:25:41 437.025 USB, Beacon 2401.1428
AO-Echo 01 Oct 14:22:46 14:27:26 75° 258° (WSW) 14:32:10 ?
AO-27 01 Oct 14:25:19 14:30:30 83° 256° (WSW) 14:35:44 436.795 MHz FM
RS-15 01 Oct 14:30:46 14:36:14 15° 263° (W) 14:41:49 29.354 - 29.394 USB, Beacon 29.352 USB
Gurwin Techsat 1B 01 Oct 14:51:57 14:57:15 83° 75° (ENE) 15:02:35 435.225 FM
Oscar 19 01 Oct 15:17:14 15:19:22 12° 271° (W) 15:21:31 437.125 CW, 437.150 USB
TMSAT-1 01 Oct 15:20:24 15:25:41 74° 258° (WSW) 15:31:00 436.925 FM
ITAMSAT 1 01 Oct 15:27:37 15:31:39 23° 266° (W) 15:35:43 435.822 SSB
Uribyol 2 01 Oct 15:28:35 15:32:28 21° 267° (W) 15:36:23 436.500 FM
MaSat-1 01 Oct 15:31:43 15:35:01 63° 247° (WSW) 15:37:52 437.345 MHz
Saudisat 1A 01 Oct 15:38:19 15:41:37 20° 316° (NW) 15:44:57 436.775 MHz
Uosat F 01 Oct 15:44:45 15:49:09 32° 68° (ENE) 15:53:35 435.120 FM
AO-7 01 Oct 15:47:10 15:55:15 60° 66° (ENE) 16:03:21 29.400 - 29.500 MHz
KITSAT 1 01 Oct 16:08:42 16:15:21 29° 106° (ESE) 16:22:01 435.175 FM
JAS-1B 01 Oct 16:10:00 16:12:51 12° 269° (W) 16:15:34 435.800 - 435.900 CW/SSB
JAS-2 01 Oct 16:24:32 16:27:10 14° 58° (ENE) 16:29:52 435.800 - 435.900 CW/SSB, 435.910 FM
Gurwin Techsat 1B 01 Oct 16:36:08 16:37:50 11° 271° (W) 16:39:33 435.225 FM
Uosat F 01 Oct 17:23:38 17:27:55 29° 264° (W) 17:32:14 435.120 FM
OPAL 01 Oct 17:32:44 17:37:33 41° 101° (E) 17:42:17 ?
AO-7 01 Oct 17:41:26 17:48:26 30° 264° (W) 17:55:28 29.400 - 29.500 MHz
Oscar 10/S400 01 Oct 17:48:38 18:07:15 56° 164° (SSE) 19:15:08 145.825 - 145.975 CW/USB, Beacon 145.810 USB
Sapphire 01 Oct 17:48:39 17:53:10 26° 48° (NE) 17:57:39 437.095 MHz 1200 baud AX-25 AFSK
Hamsat 01 Oct 17:53:00 17:57:19 71° 76° (ENE) 18:01:37 145.90 MHz
KITSAT 1 01 Oct 18:02:11 18:10:11 63° 305° (NW) 18:18:14 435.175 FM
JAS-2 01 Oct 18:06:22 18:11:31 74° 258° (WSW) 18:16:58 435.800 - 435.900 CW/SSB, 435.910 FM
SO-67 01 Oct 18:12:04 18:13:20 12° 66° (ENE) 18:14:35 435.3500 MHz FM
PCSat 01 Oct 18:13:51 18:19:00 42° 54° (NE) 18:24:07 145.825 MHz
STRAND 1 01 Oct 18:36:25 18:39:18 15° 91° (E) 18:42:10 ?
SO-50 01 Oct 18:59:58 19:04:10 42° 116° (ESE) 19:08:29 436.795 FM
OPAL 01 Oct 19:12:08 19:16:11 24° 297° (WNW) 19:20:10 ?
Sapphire 01 Oct 19:31:37 19:36:51 50° 247° (WSW) 19:42:03 437.095 MHz 1200 baud AX-25 AFSK
HO-68 01 Oct 19:33:37 19:38:49 22° 57° (ENE) 19:44:01 435.675 MHz FM
SO-67 01 Oct 19:42:43 19:45:58 39° 262° (W) 19:49:14 435.3500 MHz FM
PCSat 01 Oct 19:57:40 20:02:12 28° 252° (WSW) 20:06:44 145.825 MHz
KITSAT 1 01 Oct 20:01:58 20:07:22 19° 329° (NNW) 20:12:47 435.175 FM
STRAND 1 01 Oct 20:13:48 20:18:55 64° 287° (WNW) 20:24:00 ?
SO-50 01 Oct 20:41:11 20:44:53 24° 315° (NW) 20:48:41 436.795 FM
UKube-1 01 Oct 20:43:52 20:47:03 21° 66° (ENE) 20:50:16 145.840 MHz, 145.915 MHz
UOSAT-12 01 Oct 21:04:03 21:08:37 66° 119° (ESE) 21:13:17 437.025 FM, 437.400 FM
PANSAT 01 Oct 21:16:50 21:18:43 13° 180° (S) 21:20:35 not established
HO-68 01 Oct 21:18:39 21:25:47 75° 255° (WSW) 21:32:58 435.675 MHz FM
ZACube-1 01 Oct 21:24:57 21:28:09 19° 65° (ENE) 21:31:23 437.345 MHz
Oscar 11 01 Oct 21:48:24 21:52:45 77° 76° (ENE) 21:57:07 145.825 FM, Beacon 2401.500 USB
FUNcube-1 01 Oct 22:14:18 22:18:45 60° 74° (ENE) 22:23:19 145.950 - 145.970 MHz USB
ISS 01 Oct 22:17:13 22:20:32 84° 142° (SE) 22:23:52 145.800 FM
UKube-1 01 Oct 22:19:02 22:23:01 36° 262° (W) 22:27:02 145.840 MHz, 145.915 MHz
Saudisat 1A 01 Oct 22:24:27 22:28:36 38° 51° (NE) 22:32:44 436.775 MHz
UOSAT-12 01 Oct 22:45:55 22:49:13 19° 318° (NW) 22:52:34 437.025 FM, 437.400 FM
ZACube-1 01 Oct 22:59:52 23:04:12 44° 262° (W) 23:08:37 437.345 MHz
HO-68 01 Oct 23:12:22 23:14:35 12° 273° (W) 23:16:48 435.675 MHz FM
FUNcube-1 01 Oct 23:53:24 23:55:32 13° 270° (W) 23:57:41 145.950 - 145.970 MHz USB
ISS 01 Oct 23:55:02 23:57:35 20° 341° (NNW) 00:00:08 145.800 FM
KITSAT 1 02 Oct 00:01:04 00:06:27 19° 31° (NNE) 00:11:47 435.175 FM
Saudisat 1A 02 Oct 00:04:30 00:07:57 23° 248° (WSW) 00:11:24 436.775 MHz
RS-15 02 Oct 00:31:18 00:37:38 17° 98° (E) 00:43:54 29.354 - 29.394 USB, Beacon 29.352 USB
ISS 02 Oct 01:33:40 01:35:15 13° 1° (N) 01:36:51 145.800 FM
Oscar 19 02 Oct 01:46:47 01:51:08 27° 95° (E) 01:55:26 437.125 CW, 437.150 USB
KITSAT 1 02 Oct 01:55:37 02:03:39 62° 55° (NE) 02:11:36 435.175 FM
JAS-1B 02 Oct 01:59:19 02:03:48 23° 95° (E) 02:08:32 435.800 - 435.900 CW/SSB
ITAMSAT 1 02 Oct 02:01:33 02:04:35 15° 91° (E) 02:07:37 435.822 SSB
Uribyol 2 02 Oct 02:01:59 02:05:18 17° 92° (E) 02:08:35 436.500 FM
Oscar 16 02 Oct 02:27:28 02:32:38 69° 102° (ESE) 02:37:44 437.025 USB, Beacon 2401.1428
AO-Echo 02 Oct 02:29:54 02:34:33 36° 98° (E) 02:39:18 ?
RS-15 02 Oct 02:37:05 02:48:07 80° 118° (ESE) 02:59:02 29.354 - 29.394 USB, Beacon 29.352 USB
AO-27 02 Oct 02:38:53 02:43:42 36° 97° (E) 02:48:28 436.795 MHz FM
Gurwin Techsat 1B 02 Oct 03:08:46 03:13:35 34° 97° (E) 03:18:22 435.225 FM
ISS 02 Oct 03:10:11 03:12:53 22° 21° (NNE) 03:15:35 145.800 FM
OPAL 02 Oct 03:13:34 03:14:19 10° 55° (NE) 03:15:04 ?
Oscar 19 02 Oct 03:25:51 03:30:30 35° 292° (WNW) 03:35:07 437.125 CW, 437.150 USB
SO-50 02 Oct 03:31:31 03:36:02 39° 51° (NE) 03:40:36 436.795 FM
